DLH2CN EDDH-EDDF

Flight info

Callsign DLH2CN
Flight time N/A
Altitude 30000
Route AMLUH2G/33 AMLUH M852 DENIX DCT RIMET/N0412F310 T157 KOKEB/N0358F230 T157 KERAX KERAX5A
Aircraft A20N/M-SDE2E3FGHIRWXY/LB1

Departure

Time 2026-05-05 14:35
Airport Hamburg Helmut Schmidt Airport (EDDH)

Arrival

Time N/A
Airport Frankfurt Main Airport (EDDF)
Time Latitude Longitude Altitude Speed Heading
2026-05-05 14:12 53.63247 10.00361 50 ft 0 kts 85°
2026-05-05 14:28 53.63247 10.00358 50 ft 3 kts 85°
2026-05-05 14:28 53.63245 10.00314 50 ft 4 kts 92°
2026-05-05 14:29 53.63246 10.00297 50 ft 0 kts 92°
2026-05-05 14:29 53.63246 10.00291 50 ft 1 kts 92°
2026-05-05 14:29 53.63249 10.00256 50 ft 3 kts 130°
2026-05-05 14:29 53.63263 10.00239 49 ft 0 kts 172°
2026-05-05 14:31 53.63262 10.00239 49 ft 1 kts 172°
2026-05-05 14:31 53.63238 10.00244 47 ft 6 kts 174°
2026-05-05 14:32 53.63176 10.00252 50 ft 13 kts 176°
2026-05-05 14:32 53.63072 10.00258 50 ft 15 kts 194°
2026-05-05 14:32 53.62984 10.00170 49 ft 10 kts 212°
2026-05-05 14:32 53.62916 10.00097 50 ft 14 kts 212°
2026-05-05 14:33 53.62852 9.99981 50 ft 15 kts 241°
2026-05-05 14:33 53.62804 9.99817 46 ft 6 kts 261°
2026-05-05 14:33 53.62812 9.99792 48 ft 4 kts 310°
2026-05-05 14:33 53.62830 9.99775 48 ft 0 kts 333°
2026-05-05 14:34 53.62832 9.99773 48 ft 2 kts 333°
2026-05-05 14:34 53.62892 9.99722 49 ft 32 kts 333°
2026-05-05 14:34 53.63322 9.99353 50 ft 104 kts 333°
2026-05-05 14:34 53.64138 9.98653 55 ft 156 kts 334°
2026-05-05 14:35 53.65140 9.97789 497 ft 166 kts 335°
2026-05-05 14:35 53.66197 9.96833 1025 ft 179 kts 334°
2026-05-05 14:35 53.67331 9.95787 1502 ft 195 kts 334°
2026-05-05 14:35 53.68572 9.94679 2047 ft 208 kts 336°
2026-05-05 14:36 53.69955 9.94045 2815 ft 206 kts 359°
2026-05-05 14:36 53.71388 9.94129 3552 ft 210 kts
2026-05-05 14:36 53.72825 9.94706 4126 ft 219 kts 26°
2026-05-05 14:36 53.74009 9.96365 4853 ft 227 kts 54°
2026-05-05 14:37 53.74581 9.98866 5636 ft 237 kts 85°
2026-05-05 14:37 53.74456 10.01657 6537 ft 241 kts 100°
2026-05-05 14:37 53.73964 10.04361 7536 ft 241 kts 117°
2026-05-05 14:37 53.73131 10.06846 8527 ft 250 kts 123°
2026-05-05 14:38 53.72216 10.09492 9167 ft 273 kts 122°
2026-05-05 14:38 53.71234 10.12391 9551 ft 295 kts 121°
2026-05-05 14:38 53.70219 10.15430 9664 ft 297 kts 121°
2026-05-05 14:38 53.69163 10.18420 9753 ft 298 kts 130°
2026-05-05 14:39 53.67601 10.20667 10099 ft 300 kts 154°
2026-05-05 14:39 53.65564 10.21881 10483 ft 322 kts 167°
2026-05-05 14:39 53.63332 10.22898 11075 ft 339 kts 167°
2026-05-05 14:39 53.61028 10.23947 11907 ft 347 kts 167°
2026-05-05 14:40 53.58693 10.25012 12943 ft 349 kts 167°
2026-05-05 14:40 53.56328 10.26092 13861 ft 355 kts 167°
2026-05-05 14:40 53.53927 10.27187 14676 ft 360 kts 167°
2026-05-05 14:40 53.51500 10.28297 15530 ft 364 kts 167°
2026-05-05 14:41 53.49043 10.29420 16347 ft 369 kts 167°
2026-05-05 14:41 53.46549 10.30560 17155 ft 373 kts 168°
2026-05-05 14:41 53.44032 10.31710 17973 ft 378 kts 168°
2026-05-05 14:41 53.41479 10.32874 18759 ft 381 kts 168°
2026-05-05 14:42 53.38900 10.34039 19493 ft 386 kts 168°
2026-05-05 14:42 53.36300 10.35210 20245 ft 389 kts 168°
2026-05-05 14:42 53.33669 10.36393 20969 ft 393 kts 168°
2026-05-05 14:42 53.31015 10.37586 21676 ft 396 kts 169°
2026-05-05 14:43 53.28339 10.38786 22363 ft 399 kts 168°
2026-05-05 14:43 53.25657 10.39987 23152 ft 401 kts 169°
2026-05-05 14:43 53.22963 10.41193 23753 ft 405 kts 169°
2026-05-05 14:43 53.20231 10.42414 24364 ft 407 kts 169°
2026-05-05 14:44 53.17490 10.43638 24952 ft 410 kts 169°
2026-05-05 14:44 53.14713 10.44712 25525 ft 409 kts 174°
2026-05-05 14:44 53.11886 10.45249 26081 ft 408 kts 181°
2026-05-05 14:44 53.09060 10.45228 26632 ft 407 kts 188°
2026-05-05 14:45 53.06233 10.44823 27174 ft 408 kts 189°
2026-05-05 14:45 53.03391 10.44409 27703 ft 411 kts 189°
2026-05-05 14:45 53.00544 10.44007 28217 ft 413 kts 189°
2026-05-05 14:45 52.97665 10.43608 28704 ft 415 kts 189°